Regional Weather Roundup
Issued by NWS

Home | Current Version | Previous Version | Text Only | Print | Product List | Glossary Off
Versions: 1 2 3 4 5 6 7 8 9 10 11 12 13 14 15 16 17 18 19 20 21 22 23 24 25 26 27 28 29 30 31 32 33 34 35 36 37 38 39 40 41 42 43 44 45 46 47 48 49 50

000
ASUS43 KBIS 310210
RWRND

NORTH DAKOTA REGIONAL WEATHER ROUNDUP
NATIONAL WEATHER SERVICE BISMARCK ND
900 PM CDT MON MAY 30 2016

NOTE: "FAIR" INDICATES FEW OR NO CLOUDS BELOW 12,000 FEET WITH NO
SIGNIFICANT WEATHER AND/OR OBSTRUCTIONS TO VISIBILITY.


NDZ001>003-009>011-017-310300-
NORTHWEST NORTH DAKOTA

CITY           SKY/WX    TMP DP  RH WIND       PRES   REMARKS
WILLISTON      LGT RAIN  55  53  93 NE5       29.91F FOG
MINOT          LGT RAIN  58  54  86 NE8       29.86S
MINOT AFB      LGT RAIN  58  54  88 N8        29.86R
$$

NDZ018>021-031>035-040>046-310300-
SOUTHWEST NORTH DAKOTA

CITY           SKY/WX    TMP DP  RH WIND       PRES   REMARKS
BISMARCK       CLOUDY    58  55  90 N18       29.80R
DICKINSON      CLOUDY    53  50  89 NW14      29.87F
GARRISON         N/A     56  53  90 E13G23    29.82F
HETTINGER ARPT PTCLDY    54  47  77 NW17G26   29.92S
$$

NDZ004>008-012>016-024-026-027-054-310300-
NORTHEAST NORTH DAKOTA

CITY           SKY/WX    TMP DP  RH WIND       PRES   REMARKS
GRAND FORKS    RAIN      62  54  74 E8        29.86R
GRND FRKS AFB  LGT RAIN  60  56  87 N8        29.87R
DEVILS LAKE    CLOUDY    59  55  87 E12       29.82F
$$

NDZ022-023-025-028>030-036>039-047>053-310300-
SOUTHEAST NORTH DAKOTA

CITY           SKY/WX    TMP DP  RH WIND       PRES   REMARKS
FARGO          CLOUDY    75  54  47 E14       29.73F
JAMESTOWN      LGT RAIN  60  56  86 NE21      29.73F
$$





USA.gov is the U.S. government's official web portal to all federal, state and local government web resources and services.